User: anonymous   Login
Location: Burgberg
(50.1428°N, 11.0671°E)
Time: 19:46:55
(UTC+00:00)
Language:

Cosmos 1452 Rocket - Orbit

View from above orbital plane
View from above orbital plane
View from above satellite
View from above satellite

Ground track
Ground track

The orbit data is extracted from the following two-line orbital elements,

1 13992U 83031B   20090.85454724 +.00000054 +00000-0 +27556-4 0  9997
2 13992 074.0518 300.4830 0004618 018.8786 341.2537 14.36182584934616
Epoch (UTC): 30 March 2020 20:30:32
Eccentricity: 0.0004618
inclination: 74.0518°
perigee height: 768 km
apogee height: 774 km
right ascension of ascending node: 300.4830°
argument of perigee: 18.8786°
revolutions per day: 14.36182584
mean anomaly at epoch: 341.2537°
orbit number at epoch: 93461

The dashed part of the orbit path shows where the satellite is in the earth's shadow,  

DLR